Temperature
18 18 19 19 18 16 16 15 15 16 15 17 17 17 19 20 20 20 20 20 19 19 18 18 17 17 17 16 16 16 15 15 15 14 14 14 14 13 13 13 13 13 12 12
19 19 18 18 18 17 16 16 15 16 16 16 17 18 18 19 20 20 20 20 19 19 18 18 18 17 17 17 16 16 16 15 15 15 14 14 14 14 13 13 13 13 13 12
17 17 19 18 18 17 17 16 16 17 17 17 17 16 19 20 20 21 21 20 20 19 19 18 18 17 17 17 16 16 16 16 15 15 15 14 14 14 14 13 13 13 13 13
15 18 18 18 18 18 18 17 16 17 17 16 17 21 22 22 22 21 21 20 20 19 19 18 18 17 17 17 17 16 16 16 15 15 15 14 14 14 14 14 13 13 13 13
14 16 16 17 18 18 18 18 17 17 17 18 18 18 19 21 22 21 21 20 20 19 18 18 18 17 17 17 16 16 16 16 15 15 15 14 14 14 14 13 13 13 13 13
13 17 17 18 19 19 18 19 19 17 17 16 16 16 18 22 22 21 20 20 19 19 18 18 17 17 17 17 16 16 16 16 15 15 14 14 14 13 13 13 13 13 13 13
13 15 16 17 18 19 19 19 21 20 19 17 17 20 23 22 21 21 20 19 19 18 18 18 17 17 17 17 16 16 16 15 15 14 14 14 13 13 13 13 13 13 13 13
12 14 16 18 17 18 19 21 21 21 21 20 22 22 22 22 21 20 20 19 19 18 18 17 17 17 17 16 16 16 15 15 14 14 13 13 13 13 12 12 12 12 12 12
14 16 17 18 19 21 21 21 22 22 23 22 21 21 22 21 21 20 20 19 18 18 17 17 17 16 16 16 15 15 15 14 14 13 13 13 12 12 12 12 12 12 12 12
13 14 17 19 20 21 21 21 22 22 23 22 22 22 21 21 21 20 19 19 18 17 17 17 16 16 16 15 15 15 14 14 13 13 12 12 11 11 11 11 11 11 11 11
14 14 17 21 22 21 21 22 22 22 23 23 22 22 22 21 21 20 19 18 18 17 17 16 16 16 15 15 14 14 14 13 12 12 11 11 11 10 10 10 10 10 10 10
15 17 16 18 21 21 21 21 22 22 22 22 22 22 22 21 21 20 19 18 17 17 16 16 16 15 15 14 14 13 13 12 12 11 10 10 10 9 9 9 9 9 9 9
17 18 18 19 19 20 20 20 21 21 22 22 22 22 22 21 21 20 19 18 17 17 16 15 15 15 14 14 13 13 12 12 11 10 10 9 9 9 8 8 8 8 8 8
16 16 16 17 18 19 19 20 20 20 21 21 21 21 21 21 20 19 19 18 17 16 15 15 14 14 13 13 12 12 11 11 10 10 9 8 8 8 8 8 8 8 8 8
15 14 15 16 17 17 18 19 19 20 20 21 21 21 20 20 20 19 18 17 16 15 14 14 13 13 12 12 11 11 11 10 9 9 8 8 7 7 7 7 7 7 7 7
13 14 14 14 15 16 17 17 18 19 20 20 20 20 20 20 19 18 17 16 15 15 14 13 13 12 12 11 10 10 9 9 8 8 8 7 7 7 7 7 7 6 6 6
10 11 12 12 13 14 15 16 17 18 18 19 19 19 18 18 17 17 16 15 14 14 13 13 12 11 11 10 10 9 9 8 8 7 7 7 7 6 6 6 6 6 5 5
10 10 11 11 12 13 14 15 16 17 17 18 18 17 17 17 17 16 15 14 13 12 11 11 11 10 10 9 9 8 8 8 7 7 7 6 6 6 6 5 5 5 5 5
10 10 11 11 12 12 13 14 15 16 16 16 16 17 17 17 16 15 14 13 12 11 11 10 9 9 9 8 8 8 7 7 7 6 6 6 5 5 5 5 5 4 4 4
9 10 10 11 12 12 13 13 14 15 15 15 15 15 15 15 14 14 13 12 12 12 11 10 9 8 8 8 7 7 7 6 6 6 5 5 5 5 5 4 4 4 4 3
8 9 9 10 11 11 12 12 13 13 14 14 14 14 14 14 13 13 12 11 10 10 9 9 8 8 7 7 7 6 6 6 6 5 5 5 5 4 4 4 4 3 3 3
8 8 9 9 10 10 11 11 12 12 12 12 12 12 13 12 12 11 11 11 10 9 8 8 8 7 7 7 6 6 6 5 5 5 5 4 4 4 4 4 3 3 3 3
7 8 8 8 9 9 10 10 10 11 11 11 11 11 12 12 11 11 10 9 9 8 8 8 7 7 6 6 6 6 5 5 5 5 4 4 4 4 3 3 3 3 2 2
7 7 8 8 8 9 9 9 9 10 10 10 10 10 11 11 10 10 10 9 8 8 7 7 6 6 6 6 5 5 5 5 4 4 4 4 4 3 3 3 2 2 2 2
6 7 7 7 8 8 8 8 9 9 9 9 9 9 9 10 10 9 9 8 7 7 7 6 6 6 6 5 5 5 5 4 4 4 4 3 3 3 2 2 2 2 2 1
6 6 7 7 7 7 8 8 8 8 9 9 9 9 9 9 9 8 8 7 7 7 6 6 6 5 5 5 5 5 4 4 4 3 3 3 3 2 2 2 2 1 1 1
6 6 6 7 7 7 7 7 8 8 8 8 8 8 8 8 8 7 7 7 6 6 6 6 5 5 5 5 4 4 4 4 3 3 3 3 2 2 2 2 1 1 1 1
Wind_Speed
7 6 4 6 7 8 9 10 10 10 10 12 11 11 10 8 7 7 7 7 8 8 7 6 6 6 6 6 5 4 4 5 6 5 5 5 5 5 4 4 4 4 4 5
4 4 5 6 8 10 10 7 9 8 10 12 8 5 6 8 9 9 9 9 9 8 7 7 7 6 5 5 4 4 4 5 4 4 4 4 5 5 5 5 4 4 4 5
5 5 2 7 10 11 8 9 10 12 14 7 6 10 12 11 11 11 11 10 9 9 8 8 7 6 6 5 3 3 3 3 3 3 4 4 4 4 5 5 4 5 5 5
2 1 7 10 5 8 9 10 12 11 9 10 12 10 8 9 11 11 10 10 9 8 7 6 5 5 4 3 3 3 2 2 3 3 4 4 4 5 5 4 4 4 5 5
4 3 8 10 7 7 8 10 10 13 12 7 4 3 3 8 10 11 10 9 8 8 7 6 6 5 5 4 3 2 1 3 3 2 3 3 4 5 4 3 4 4 4 4
4 4 6 10 5 4 5 7 8 11 11 8 10 5 8 8 9 9 8 7 7 7 6 6 5 6 7 5 3 2 2 2 2 2 2 3 4 4 3 3 4 4 4 4
6 6 9 10 4 6 4 8 5 7 9 12 13 10 6 8 9 9 8 7 8 8 7 6 6 8 7 5 3 2 1 0 1 1 1 2 3 2 3 3 3 3 4 4
6 5 9 5 6 8 8 5 4 5 8 12 11 5 6 9 10 11 9 8 9 9 7 5 6 8 7 5 2 2 2 3 3 3 2 2 2 3 3 2 2 3 3 5
9 9 6 3 8 8 4 6 6 5 6 9 8 7 8 9 10 10 10 10 8 9 8 5 5 7 8 4 3 4 4 3 3 3 4 3 3 3 3 3 2 2 3 4
6 10 9 10 9 8 7 8 8 7 6 9 9 9 9 10 10 10 9 10 9 10 10 6 5 5 6 5 5 6 5 3 3 4 4 4 4 3 3 3 3 3 3 3
7 10 11 10 7 7 7 8 8 7 7 10 10 9 11 11 12 12 10 9 10 11 10 9 7 6 5 5 7 7 5 4 3 3 3 4 4 3 3 3 3 2 2 2
9 10 7 12 12 9 9 10 10 7 7 7 10 12 12 12 12 12 12 10 10 10 10 9 8 7 5 5 7 7 5 4 3 3 3 3 3 4 6 5 9 9 7 5
10 10 9 11 12 10 10 12 10 9 10 10 9 10 12 10 11 12 12 13 13 13 11 10 9 8 6 6 7 7 6 4 3 3 2 2 2 3 3 5 8 10 10 9
8 7 9 10 12 13 12 12 10 9 9 8 8 9 10 10 11 14 15 14 13 13 12 11 10 8 6 7 8 7 6 5 5 3 2 2 2 2 2 2 3 4 6 9
10 9 11 14 13 13 11 8 7 8 7 7 7 10 13 15 16 15 13 14 14 13 12 11 10 8 7 8 8 7 6 4 3 3 2 2 2 2 3 3 2 2 3 5
13 11 9 10 13 13 10 9 9 11 9 8 9 11 13 13 13 14 15 17 17 16 14 12 10 8 8 8 8 6 5 8 6 4 3 3 2 3 2 2 2 2 3 3
10 11 12 13 14 14 12 11 11 11 9 10 11 10 11 13 14 15 14 13 13 13 13 12 10 9 8 8 8 6 5 5 8 5 3 3 2 2 2 1 1 1 2 2
8 9 10 11 12 13 14 12 10 9 8 8 9 12 15 17 18 17 16 13 12 11 9 10 10 9 8 8 7 6 5 4 4 4 3 2 2 1 1 1 1 1 2 3
12 13 13 12 12 11 11 11 9 7 4 7 11 13 14 14 15 16 16 16 16 14 11 10 16 11 9 9 9 6 6 5 4 3 3 3 2 1 1 1 0 1 2 2
14 15 15 15 14 11 11 11 7 3 4 8 10 10 11 12 15 17 16 14 12 10 12 12 11 9 8 9 10 6 6 6 5 4 3 3 2 1 1 1 1 1 2 2
14 15 16 16 15 13 11 9 6 3 3 7 10 12 13 13 15 15 14 10 7 10 13 17 10 8 7 9 10 6 6 5 5 4 4 3 2 2 2 2 2 2 2 3
12 13 14 14 13 13 11 8 5 2 2 4 6 9 12 13 13 11 10 9 11 15 11 9 8 11 12 11 6 6 6 5 5 4 4 3 3 3 3 3 3 3 3 4
11 11 12 13 12 11 10 8 5 2 2 4 7 10 12 11 12 12 9 7 10 17 11 8 12 16 15 8 6 6 6 5 5 4 4 4 4 3 3 3 3 4 4 4
10 11 11 11 10 8 8 8 6 3 0 2 4 7 10 9 6 5 6 15 18 17 9 11 17 17 14 6 6 6 5 5 5 4 4 4 3 3 3 3 4 4 4 5
10 10 9 10 9 7 7 6 4 2 1 1 3 5 6 6 7 8 9 12 17 16 8 13 18 16 9 6 6 6 5 5 5 5 4 4 4 4 4 3 4 4 4 5
9 9 8 8 7 7 5 3 2 1 1 2 2 3 4 5 7 8 9 10 12 14 9 6 8 9 7 6 6 6 5 5 4 4 4 4 4 4 4 4 5 4 5 5
8 7 7 7 6 5 4 4 3 3 4 4 4 4 5 6 7 8 9 9 8 8 7 6 6 6 6 6 6 5 5 4 4 4 4 4 3 3 4 4 4 4 5 5
Wind_Direction
237 237 204 223 214 184 192 195 199 228 227 246 237 224 224 215 205 196 201 203 205 210 217 220 227 234 236 243 239 222 219 236 249 258 261 265 270 273 276 279 281 284 293 301
276 270 225 246 243 211 217 216 221 241 253 245 242 212 215 209 196 200 206 206 206 206 206 212 218 224 225 234 232 201 212 240 256 265 269 270 272 274 278 281 283 285 287 292
258 299 353 268 236 209 209 207 192 219 238 227 202 209 212 206 199 204 206 202 201 201 202 208 210 208 212 222 207 190 218 249 261 263 271 275 281 285 281 280 280 283 283 285
208 20 248 247 245 208 218 236 211 222 231 208 211 217 215 197 194 203 202 199 200 197 198 202 199 193 190 174 171 185 220 258 272 271 277 288 294 289 286 281 277 278 281 284
147 219 275 290 268 193 201 261 223 219 231 217 182 110 269 214 197 200 196 192 192 187 181 176 177 170 149 145 146 156 235 270 277 268 274 289 292 289 287 288 289 282 281 289
145 189 249 255 258 179 144 275 253 206 211 171 136 170 240 209 187 190 182 172 166 156 148 154 163 147 139 143 142 179 241 268 285 273 265 279 284 288 288 282 287 302 310 307
179 215 259 255 258 133 166 249 273 201 190 169 183 203 207 162 169 169 162 157 148 143 145 155 149 138 137 139 162 207 227 23 10 344 298 292 305 303 300 304 316 325 327 330
159 190 253 249 144 178 223 265 273 218 192 191 207 187 152 161 162 155 150 146 145 141 138 136 142 140 138 152 173 129 102 74 38 18 10 9 350 340 337 337 345 342 346 345
192 216 243 231 218 245 255 265 260 236 223 197 195 191 178 170 164 160 156 153 148 141 132 125 137 143 145 160 142 119 98 74 42 31 23 15 20 12 12 17 19 0 5 356
253 271 271 268 256 255 243 249 261 244 223 191 196 191 179 171 167 162 158 156 149 143 140 140 138 136 145 144 132 116 103 80 56 48 32 24 30 36 43 32 27 21 16 358
265 281 302 299 273 277 283 272 267 252 221 203 193 189 182 179 176 171 163 158 155 154 151 151 144 136 137 137 128 116 106 89 67 55 46 35 37 43 47 43 65 66 27 13
255 260 261 280 291 299 288 276 262 249 240 215 197 195 184 183 178 170 164 158 156 153 150 150 145 139 138 138 133 126 116 101 84 69 55 51 49 37 33 43 49 54 56 58
256 276 267 272 286 285 276 273 263 243 232 225 211 193 182 179 172 165 163 163 163 160 155 151 145 142 143 138 131 128 129 126 108 91 79 67 60 63 37 17 29 37 36 38
277 293 289 284 283 286 280 275 267 256 242 223 205 185 175 166 163 168 172 168 159 152 151 150 146 148 151 140 130 128 128 127 122 109 98 86 79 73 71 59 28 3 6 20
299 286 271 281 288 291 289 278 264 255 240 219 194 181 176 173 175 174 163 153 148 148 151 151 149 154 154 143 135 134 130 130 124 117 105 96 88 79 71 64 53 21 7 8
308 308 303 303 300 299 296 279 260 255 240 217 198 193 185 175 164 155 155 156 156 160 161 157 157 159 154 144 137 135 140 140 133 124 109 97 88 86 77 68 52 35 20 360
326 326 323 318 311 304 293 278 263 255 240 218 201 178 157 150 150 155 160 161 158 156 157 157 157 156 152 148 143 141 136 139 133 119 117 118 113 108 103 91 66 33 353 349
306 298 298 300 305 306 302 293 279 261 238 214 171 159 162 165 167 165 159 149 142 142 153 155 153 150 150 149 146 142 139 137 136 136 134 131 133 132 124 112 58 10 336 346
336 331 328 325 318 311 307 301 289 270 232 176 170 175 175 170 162 157 154 154 156 161 170 168 162 153 151 161 152 142 143 142 140 140 141 139 127 130 138 152 280 308 312 322
344 342 339 336 334 329 320 315 304 276 204 175 167 162 161 159 156 156 158 163 169 165 161 163 156 153 157 165 156 147 150 152 153 154 153 155 163 180 204 235 260 280 292 294
341 340 339 337 335 333 330 324 311 277 200 174 172 170 163 157 156 156 157 160 163 151 158 163 158 157 160 165 160 151 155 158 161 167 170 176 185 202 225 250 265 270 277 284
332 334 333 332 333 334 334 333 321 288 178 168 160 153 150 153 156 156 158 158 160 160 157 157 156 168 171 164 153 158 163 166 169 173 179 187 195 210 230 245 256 265 272 278
321 324 326 328 327 324 331 340 337 319 188 173 166 163 161 160 161 159 161 155 156 165 159 162 172 175 173 163 159 165 169 173 178 185 193 199 204 212 225 243 252 262 271 278
317 320 319 319 322 328 331 334 339 340 341 158 162 160 154 149 148 149 139 159 166 164 163 173 178 178 172 157 162 168 174 180 186 193 199 202 208 218 229 242 255 264 270 278
309 311 313 318 321 317 311 317 334 357 65 102 129 145 153 154 155 154 150 159 167 162 162 179 181 180 166 157 167 172 179 188 193 194 196 201 212 223 233 243 253 266 275 280
296 300 299 294 291 292 290 286 281 259 176 157 153 149 141 134 138 145 150 158 166 167 165 167 169 167 159 166 172 176 181 192 201 194 195 205 217 225 237 249 262 269 277 282
285 290 294 294 293 285 277 259 242 232 208 189 183 174 160 152 151 153 154 157 160 160 160 161 159 160 164 168 171 174 177 182 187 193 200 208 217 228 241 254 263 272 279 284
Height
1492 1489 1490 1490 1491 1497 1500 1501 1507 1501 1498 1485 1479 1477 1477 1478 1480 1483 1485 1487 1489 1491 1493 1495 1497 1498 1499 1500 1500 1500 1500 1499 1499 1498 1497 1496 1494 1493 1492 1490 1488 1487 1485 1484
1490 1486 1488 1490 1487 1489 1491 1491 1493 1491 1488 1473 1472 1473 1474 1475 1477 1479 1481 1483 1486 1488 1490 1492 1494 1495 1496 1497 1498 1498 1498 1497 1497 1496 1495 1494 1493 1491 1490 1489 1487 1485 1484 1482
1499 1491 1488 1493 1481 1481 1482 1479 1481 1484 1474 1467 1469 1469 1468 1470 1472 1474 1477 1480 1482 1485 1487 1489 1491 1493 1494 1495 1495 1495 1495 1495 1494 1494 1493 1492 1490 1489 1488 1486 1485 1484 1482 1481
1500 1494 1500 1482 1466 1467 1470 1468 1467 1464 1461 1461 1461 1461 1463 1466 1468 1471 1474 1477 1479 1482 1484 1487 1489 1490 1491 1492 1493 1493 1493 1493 1492 1491 1490 1489 1488 1486 1485 1484 1482 1481 1480 1479
1504 1501 1494 1476 1464 1464 1467 1464 1455 1456 1454 1456 1458 1461 1461 1462 1465 1468 1471 1474 1476 1479 1481 1484 1486 1487 1489 1490 1490 1490 1490 1490 1489 1488 1487 1486 1485 1484 1482 1481 1480 1479 1477 1476
1502 1497 1496 1475 1458 1456 1461 1463 1447 1447 1449 1452 1457 1465 1458 1457 1461 1464 1468 1471 1473 1476 1478 1481 1483 1485 1486 1487 1487 1488 1488 1487 1486 1485 1484 1483 1482 1480 1479 1478 1477 1476 1474 1473
1498 1497 1485 1461 1455 1458 1470 1463 1444 1443 1443 1447 1449 1449 1450 1453 1457 1461 1464 1467 1470 1473 1475 1478 1480 1482 1483 1484 1485 1485 1485 1484 1483 1482 1481 1480 1479 1477 1476 1475 1474 1473 1472 1471
1495 1495 1484 1453 1455 1458 1454 1445 1443 1441 1441 1442 1442 1445 1448 1450 1454 1457 1461 1464 1467 1470 1473 1475 1477 1479 1480 1481 1482 1482 1482 1481 1480 1479 1478 1477 1476 1475 1473 1472 1471 1470 1469 1468
1475 1469 1453 1451 1450 1447 1447 1444 1442 1440 1439 1440 1441 1443 1445 1448 1451 1454 1458 1461 1464 1467 1470 1472 1474 1476 1478 1479 1479 1479 1479 1478 1478 1477 1476 1474 1473 1472 1471 1470 1469 1468 1467 1466
1467 1456 1448 1446 1444 1443 1442 1441 1439 1438 1438 1438 1438 1440 1442 1445 1448 1451 1454 1458 1461 1464 1466 1469 1471 1473 1475 1476 1476 1476 1476 1476 1475 1474 1473 1472 1471 1470 1468 1467 1466 1465 1464 1463
1462 1452 1445 1440 1440 1440 1438 1437 1436 1435 1435 1435 1436 1437 1439 1441 1444 1447 1451 1454 1457 1460 1463 1466 1468 1470 1471 1472 1473 1473 1473 1473 1472 1472 1471 1470 1469 1468 1466 1465 1465 1464 1463 1462
1455 1448 1446 1441 1438 1437 1435 1433 1432 1431 1430 1431 1432 1433 1435 1437 1440 1443 1446 1450 1453 1456 1459 1462 1464 1466 1468 1469 1470 1471 1471 1470 1470 1470 1469 1468 1467 1466 1465 1465 1464 1463 1462 1461
1446 1443 1441 1437 1435 1433 1431 1429 1427 1426 1426 1426 1427 1428 1430 1433 1436 1439 1442 1445 1449 1452 1456 1458 1461 1463 1465 1466 1467 1468 1468 1468 1468 1467 1467 1467 1466 1465 1465 1464 1463 1462 1461 1460
1441 1439 1435 1432 1430 1427 1425 1423 1421 1420 1420 1420 1421 1423 1425 1427 1430 1433 1437 1440 1445 1449 1452 1455 1457 1459 1461 1463 1464 1465 1465 1466 1466 1466 1465 1465 1465 1464 1464 1463 1463 1461 1460 1459
1435 1434 1431 1427 1424 1421 1418 1416 1414 1413 1412 1413 1414 1416 1418 1420 1423 1427 1431 1436 1440 1444 1448 1451 1453 1456 1458 1460 1461 1462 1463 1463 1464 1464 1464 1464 1464 1463 1463 1462 1461 1460 1459 1458
1429 1426 1423 1420 1417 1414 1411 1409 1408 1406 1405 1405 1407 1408 1411 1414 1418 1422 1426 1430 1434 1438 1442 1446 1450 1452 1455 1457 1458 1459 1460 1461 1462 1462 1462 1462 1462 1462 1461 1461 1460 1459 1458 1457
1426 1421 1418 1415 1411 1408 1406 1404 1402 1400 1399 1399 1400 1402 1405 1408 1412 1416 1421 1426 1431 1435 1439 1443 1446 1449 1451 1454 1455 1457 1458 1459 1460 1460 1461 1461 1461 1461 1460 1459 1458 1457 1456 1455
1424 1421 1417 1413 1408 1404 1400 1397 1395 1393 1393 1393 1394 1396 1399 1402 1405 1410 1415 1421 1427 1432 1436 1440 1443 1446 1448 1451 1453 1454 1456 1457 1458 1459 1459 1459 1459 1459 1459 1458 1457 1456 1455 1453
1419 1415 1411 1407 1403 1399 1396 1392 1390 1388 1388 1388 1389 1391 1393 1397 1402 1406 1411 1416 1421 1426 1431 1436 1439 1442 1445 1448 1450 1452 1453 1455 1456 1456 1457 1457 1458 1457 1457 1456 1455 1454 1453 1451
1415 1411 1407 1402 1398 1395 1391 1388 1386 1384 1383 1384 1385 1387 1390 1394 1398 1403 1408 1412 1417 1422 1427 1432 1436 1439 1442 1445 1447 1449 1451 1452 1453 1454 1455 1455 1455 1455 1455 1454 1453 1451 1450 1448
1414 1410 1405 1401 1396 1392 1389 1386 1384 1382 1380 1381 1382 1384 1387 1391 1395 1400 1405 1410 1416 1421 1425 1429 1433 1437 1440 1442 1445 1447 1448 1450 1451 1452 1452 1453 1453 1452 1452 1451 1450 1448 1447 1445
1413 1408 1404 1400 1395 1391 1387 1385 1383 1381 1380 1380 1381 1383 1386 1389 1393 1398 1403 1408 1413 1418 1422 1426 1430 1434 1437 1440 1442 1444 1446 1447 1448 1449 1450 1450 1450 1449 1449 1448 1446 1445 1443 1441
1412 1408 1403 1399 1395 1390 1387 1385 1383 1381 1380 1380 1381 1382 1385 1388 1391 1396 1401 1407 1411 1416 1420 1424 1428 1431 1434 1437 1439 1441 1443 1444 1445 1446 1446 1446 1446 1446 1445 1444 1442 1441 1439 1437
1409 1406 1402 1398 1394 1390 1387 1385 1383 1382 1381 1381 1382 1383 1385 1388 1392 1396 1400 1405 1409 1414 1418 1422 1426 1429 1432 1434 1436 1438 1440 1441 1442 1443 1443 1443 1442 1442 1441 1439 1438 1436 1434 1432
1406 1403 1399 1396 1393 1389 1387 1385 1383 1382 1382 1382 1383 1384 1386 1389 1392 1395 1399 1404 1408 1412 1416 1420 1423 1426 1429 1431 1433 1435 1437 1438 1439 1439 1439 1439 1438 1437 1436 1435 1433 1431 1429 1426
1403 1399 1396 1394 1391 1388 1386 1384 1383 1382 1382 1382 1383 1384 1387 1389 1392 1395 1399 1402 1406 1410 1414 1417 1420 1423 1426 1428 1430 1432 1433 1434 1435 1435 1435 1435 1434 1433 1432 1430 1428 1426 1423 1420
1397 1395 1392 1390 1388 1386 1384 1382 1381 1380 1381 1381 1382 1384 1386 1388 1391 1394 1397 1401 1405 1408 1412 1415 1418 1421 1423 1425 1427 1428 1430 1430 1431 1431 1431 1430 1429 1428 1427 1425 1423 1420 1417 1414